This is the latest recevied weather packets stored in our database for station/object NC4M. If no packets are shown the sender has not sent any weather packets the latest 10 day(s).
| Time | Temp. | Humidity | Pressure | Rain* | Wind** | Luminosity | Snow |
|---|---|---|---|---|---|---|---|
| 1777666601 | 17.22° C | 32% | 1018.3 hPa | 0 mm | - | 263 W/m² | - |
| 1777666298 | 16.67° C | 34% | 1018.4 hPa | 0 mm | - | 172 W/m² | - |
| 1777665994 | 16.67° C | 30% | 1018.5 hPa | 0 mm | - | 152 W/m² | - |
| 1777665692 | 17.22° C | 32% | 1018.5 hPa | 0 mm | - | 145 W/m² | - |
| 1777665389 | 17.22° C | 32% | 1018.5 hPa | 0 mm | - | 156 W/m² | - |
| 1777665085 | 17.22° C | 33% | 1018.7 hPa | 0 mm | - | 147 W/m² | - |
| 1777664781 | 17.78° C | 30% | 1018.7 hPa | 0 mm | - | 139 W/m² | - |
| 1777664476 | 17.78° C | 32% | 1018.8 hPa | 0 mm | - | 121 W/m² | - |
| 1777664174 | 17.78° C | 31% | 1018.6 hPa | 0 mm | - | 164 W/m² | - |
| 1777663873 | 17.78° C | 30% | 1018.7 hPa | 0 mm | - | 136 W/m² | - |
| 1777663569 | 17.78° C | 28% | 1018.9 hPa | 0 mm | - | 151 W/m² | - |
| 1777663266 | 17.78° C | 34% | 1018.7 hPa | 0 mm | - | 204 W/m² | - |
| 1777662964 | 16.67° C | 29% | 1018.8 hPa | 0 mm | - | 166 W/m² | - |
| 1777662661 | 16.11° C | 33% | 1018.7 hPa | 0 mm | - | 838 W/m² | - |
| 1777662357 | 16.67° C | 29% | 1019.1 hPa | 0 mm | - | 202 W/m² | - |
| 1777662052 | 17.78° C | 32% | 1019 hPa | 0 mm | - | 541 W/m² | - |
| 1777661748 | 17.22° C | 27% | 1019 hPa | 0 mm | - | 322 W/m² | - |
| 1777661444 | 16.67° C | 31% | 1019 hPa | 0 mm | - | 84 W/m² | - |
| 1777661140 | 16.67° C | 28% | 1019.1 hPa | 0 mm | - | 148 W/m² | - |
| 1777660840 | 16.67° C | 29% | 1019 hPa | 0 mm | - | 942 W/m² | - |
| 1777660538 | 16.67° C | 32% | 1018.9 hPa | 0 mm | - | 151 W/m² | - |
| 1777660234 | 16.67° C | 36% | 1019.3 hPa | 0 mm | - | 980 W/m² | - |
| 1777659931 | 16.11° C | 34% | 1019.1 hPa | 0 mm | - | 873 W/m² | - |
| 1777659628 | 16.11° C | 31% | 1018.9 hPa | 0 mm | - | 933 W/m² | - |
| 1777659325 | 16.67° C | 32% | 1019 hPa | 0 mm | - | 215 W/m² | - |
* Rain latest hour (hover to see other rain measurements)
** Current wind speed in m/s (hover to see current wind gust speed)